Hourly Weather Rio de Janeiro

Today, 12 August, Wednesday

Time Temperature Precipitation Wind Pressure Humidity
00:00 +24°C° 0 mm 2 mps 760 mmHg 50%
01:00 +24°C° 0 mm 2 mps 760 mmHg 52%
02:00 +23°C° 0 mm 2 mps 760 mmHg 53%
03:00 +23°C° 0 mm 2 mps 759 mmHg 54%
04:00 +23°C° 0 mm 2 mps 759 mmHg 57%
05:00 +21°C° 0 mm 2 mps 760 mmHg 59%
06:00 +22°C° 0 mm 1 mps 760 mmHg 61%
07:00 +24°C° 0 mm 2 mps 760 mmHg 58%
08:00 +25°C° 0 mm 2 mps 760 mmHg 55%
09:00 +27°C° 0 mm 2 mps 761 mmHg 53%
10:00 +29°C° 0 mm 2 mps 760 mmHg 49%
11:00 +30°C° 0 mm 2 mps 760 mmHg 45%
12:00 +33°C° 0 mm 3 mps 760 mmHg 41%
13:00 +31°C° 0 mm 3 mps 759 mmHg 43%
14:00 +31°C° 0 mm 3 mps 758 mmHg 45%
15:00 +31°C° 0 mm 3 mps 758 mmHg 47%
16:00 +29°C° 0 mm 3 mps 758 mmHg 54%
17:00 +27°C° 0 mm 3 mps 758 mmHg 61%
18:00 +26°C° 0 mm 2 mps 758 mmHg 68%
19:00 +25°C° 0 mm 2 mps 759 mmHg 69%
20:00 +25°C° 0 mm 1 mps 759 mmHg 71%
21:00 +24°C° 0 mm 1 mps 759 mmHg 72%
22:00 +24°C° 0 mm 1 mps 759 mmHg 72%
23:00 +24°C° 0 mm 1 mps 759 mmHg 72%

Tomorrow, 13 August, Thursday

Time Temperature Precipitation Wind Pressure Humidity
00:00 +24°C° 0 mm 1 mps 759 mmHg 72%
01:00 +23°C° 0 mm 1 mps 759 mmHg 71%
02:00 +23°C° 0 mm 1 mps 758 mmHg 71%
03:00 +23°C° 0 mm 2 mps 758 mmHg 70%
04:00 +23°C° 0 mm 2 mps 758 mmHg 70%
05:00 +23°C° 0 mm 2 mps 758 mmHg 69%
06:00 +23°C° 0 mm 2 mps 758 mmHg 69%
07:00 +25°C° 0 mm 2 mps 758 mmHg 63%
08:00 +27°C° 0 mm 2 mps 759 mmHg 56%
09:00 +29°C° 0 mm 3 mps 759 mmHg 49%
10:00 +30°C° 0 mm 3 mps 759 mmHg 44%
11:00 +33°C° 0 mm 3 mps 758 mmHg 39%
12:00 +35°C° 0 mm 3 mps 758 mmHg 33%
13:00 +35°C° 0 mm 3 mps 757 mmHg 33%
14:00 +35°C° 0 mm 3 mps 757 mmHg 33%
15:00 +36°C° 0 mm 3 mps 756 mmHg 33%
16:00 +34°C° 0 mm 3 mps 756 mmHg 38%
17:00 +31°C° 0 mm 3 mps 757 mmHg 42%
18:00 +30°C° 0 mm 3 mps 757 mmHg 47%
19:00 +29°C° 0 mm 2 mps 757 mmHg 50%
20:00 +28°C° 0 mm 2 mps 758 mmHg 52%
21:00 +27°C° 0 mm 2 mps 758 mmHg 54%
22:00 +27°C° 0 mm 2 mps 758 mmHg 54%
23:00 +26°C° 0 mm 2 mps 758 mmHg 55%

Day after tomorrow, 14 August, Friday

Time Temperature Precipitation Wind Pressure Humidity
00:00 +26°C° 0 mm 2 mps 758 mmHg 56%
01:00 +25°C° 0 mm 2 mps 757 mmHg 56%
02:00 +25°C° 0 mm 2 mps 757 mmHg 57%
03:00 +24°C° 0 mm 2 mps 757 mmHg 58%
04:00 +24°C° 0 mm 2 mps 757 mmHg 58%
05:00 +24°C° 0 mm 2 mps 757 mmHg 59%
06:00 +24°C° 0 mm 2 mps 757 mmHg 60%
07:00 +25°C° 0 mm 2 mps 757 mmHg 56%
08:00 +27°C° 0 mm 2 mps 757 mmHg 52%
09:00 +29°C° 0 mm 2 mps 758 mmHg 48%
10:00 +31°C° 0 mm 2 mps 757 mmHg 43%
11:00 +34°C° 0 mm 2 mps 757 mmHg 37%
12:00 +35°C° 0 mm 1 mps 757 mmHg 32%
13:00 +36°C° 0 mm 2 mps 756 mmHg 32%
14:00 +36°C° 0 mm 2 mps 755 mmHg 32%
15:00 +36°C° 0 mm 2 mps 755 mmHg 32%
16:00 +34°C° 0 mm 2 mps 755 mmHg 39%
17:00 +31°C° 0 mm 2 mps 755 mmHg 46%
18:00 +29°C° 0 mm 2 mps 756 mmHg 53%
19:00 +29°C° 0 mm 2 mps 756 mmHg 55%
20:00 +28°C° 0 mm 2 mps 756 mmHg 56%
21:00 +27°C° 0 mm 2 mps 756 mmHg 58%
22:00 +27°C° 0 mm 2 mps 756 mmHg 58%
23:00 +26°C° 0 mm 1 mps 756 mmHg 58%

15 August, Saturday

Time Temperature Precipitation Wind Pressure Humidity
00:00 +26°C° 0 mm 1 mps 756 mmHg 58%
01:00 +25°C° 0 mm 2 mps 756 mmHg 58%
02:00 +25°C° 0 mm 2 mps 756 mmHg 57%
03:00 +25°C° 0 mm 2 mps 755 mmHg 57%
04:00 +25°C° 0 mm 2 mps 755 mmHg 56%
05:00 +24°C° 0 mm 3 mps 755 mmHg 55%
06:00 +24°C° 0 mm 3 mps 755 mmHg 54%
07:00 +26°C° 0 mm 3 mps 755 mmHg 51%
08:00 +28°C° 0 mm 3 mps 755 mmHg 48%
09:00 +29°C° 0 mm 3 mps 755 mmHg 46%
10:00 +31°C° 0 mm 3 mps 755 mmHg 41%
11:00 +34°C° 0 mm 3 mps 755 mmHg 37%
12:00 +35°C° 0 mm 2 mps 755 mmHg 33%
13:00 +35°C° 0 mm 3 mps 755 mmHg 37%
14:00 +34°C° 0 mm 4 mps 755 mmHg 41%
15:00 +33°C° 0 mm 6 mps 754 mmHg 45%
16:00 +30°C° 0 mm 5 mps 755 mmHg 51%
17:00 +29°C° 0 mm 4 mps 755 mmHg 56%
18:00 +28°C° 0 mm 3 mps 756 mmHg 61%
19:00 +27°C° 0 mm 3 mps 756 mmHg 65%
20:00 +26°C° 0 mm 3 mps 757 mmHg 68%
21:00 +26°C° 0 mm 2 mps 757 mmHg 72%
22:00 +25°C° 0 mm 2 mps 757 mmHg 72%
23:00 +25°C° 0 mm 1 mps 757 mmHg 72%

16 August, Sunday

Time Temperature Precipitation Wind Pressure Humidity
00:00 +25°C° 0 mm 1 mps 757 mmHg 72%
01:00 +25°C° 0 mm 1 mps 756 mmHg 72%
02:00 +24°C° 0 mm 1 mps 756 mmHg 71%
03:00 +24°C° 0 mm 1 mps 755 mmHg 71%
04:00 +24°C° 0 mm 1 mps 755 mmHg 71%
05:00 +22°C° 0 mm 0 mps 755 mmHg 71%
06:00 +22°C° 0 mm 0 mps 756 mmHg 70%
07:00 +25°C° 0 mm 1 mps 756 mmHg 67%
08:00 +26°C° 0 mm 1 mps 757 mmHg 63%
09:00 +27°C° 0 mm 2 mps 757 mmHg 60%
10:00 +28°C° 0 mm 2 mps 757 mmHg 57%
11:00 +29°C° 0 mm 3 mps 757 mmHg 55%
12:00 +30°C° 0 mm 3 mps 757 mmHg 52%
13:00 +29°C° 0 mm 4 mps 756 mmHg 57%
14:00 +28°C° 0 mm 4 mps 756 mmHg 62%
15:00 +27°C° 0 mm 4 mps 756 mmHg 66%
16:00 +26°C° 0 mm 3 mps 756 mmHg 70%
17:00 +26°C° 0 mm 2 mps 756 mmHg 74%
18:00 +25°C° 0 mm 1 mps 756 mmHg 77%
19:00 +25°C° 0.2 mm 1 mps 757 mmHg 79%
20:00 +24°C° 0.2 mm 1 mps 757 mmHg 80%
21:00 +22°C° 0.2 mm 0 mps 757 mmHg 82%
22:00 +24°C° 0.1 mm 1 mps 757 mmHg 83%
23:00 +24°C° 0.1 mm 1 mps 757 mmHg 84%

17 August, Monday

Time Temperature Precipitation Wind Pressure Humidity
00:00 +24°C° 0.1 mm 1 mps 757 mmHg 85%
01:00 +24°C° 0.1 mm 1 mps 757 mmHg 85%
02:00 +23°C° 0.1 mm 1 mps 756 mmHg 86%
03:00 +21°C° 0.1 mm 0 mps 756 mmHg 86%
04:00 +23°C° 0.3 mm 1 mps 756 mmHg 87%
05:00 +23°C° 0.3 mm 2 mps 757 mmHg 87%
06:00 +22°C° 0.3 mm 3 mps 757 mmHg 87%
07:00 +23°C° 1.1 mm 2 mps 757 mmHg 87%
08:00 +23°C° 1.1 mm 2 mps 758 mmHg 87%
09:00 +23°C° 1.1 mm 2 mps 758 mmHg 87%
10:00 +24°C° 0.6 mm 2 mps 758 mmHg 83%
11:00 +25°C° 0.6 mm 3 mps 757 mmHg 79%
12:00 +26°C° 0.6 mm 4 mps 757 mmHg 75%
13:00 +26°C° 0.3 mm 3 mps 757 mmHg 74%
14:00 +26°C° 0.3 mm 2 mps 756 mmHg 73%
15:00 +27°C° 0.3 mm 1 mps 756 mmHg 71%
16:00 +26°C° 2.1 mm 1 mps 756 mmHg 76%
17:00 +25°C° 2.1 mm 1 mps 757 mmHg 81%
18:00 +24°C° 2.1 mm 1 mps 757 mmHg 86%
19:00 +24°C° 1.2 mm 1 mps 757 mmHg 86%
20:00 +23°C° 1.2 mm 1 mps 758 mmHg 87%
21:00 +23°C° 1.2 mm 2 mps 758 mmHg 88%
22:00 +23°C° 1 mm 2 mps 758 mmHg 87%
23:00 +21°C° 1 mm 2 mps 758 mmHg 87%
Show more